Other Public Products
Issued by NWS Charleston, SC

Current Version | Previous Version | Graphics & Text | Print | Product List | Glossary On
Versions: 1 2 3 4 5 6 7 8 9 10 11 12 13 14 15 16 17 18 19 20 21 22 23 24 25 26 27 28 29 30 31 32 33 34 35 36 37 38 39 40 41 42 43 44 45 46 47 48 49 50
478
FPUS82 KCHS 242127
OPUCHS

TEST...KCHS/KSAV Gateway Observations...TEST
National Weather Service Charleston SC
500 PM EDT WED MAY 24 2017

NOTE: "fair" indicates few or no clouds below 12,000 feet with no
significant weather and/or obstructions to visibility.

SCZ050-WAZ558-NCZ071-TXZ119-213-PAZ071-DCZ001-FLZ074-172-MI076-
NYZ176-178-MAZ016-IL014-TNZ027-NJZ106-GAZ044-MD014-242200-

...Gateway Observations for Charleston International...

CITY           SKY/WX    TMP DP  RH WIND       PRES   REMARKS
Chas Airport   CLOUDY    72  69  90 S14G22    29.58F
Seattle        PTSUNNY   61  39  44 CALM      29.99F
Charlotte      HVY RAIN  68  63  84 S20G25    29.55F
Dallas DFW     MOSUNNY   82  42  24 NW13G26   29.74F
Dallas Love    MOSUNNY   81  42  25 NW14G23   29.75F
Philladelphia  PTSUNNY   69  51  52 SE13      29.75S
Wash National  CLOUDY    64  58  80 SE13      29.73F
Baltimore      CLOUDY    65  58  78 SE6       29.72F
Miami          CLOUDY    90  72  55 S12G23    29.82S HX  97
Detroit        CLOUDY    63  58  83 NE12      29.54S
Newark         PTSUNNY   69  50  50 E5        29.78R
Laguardia      PTSUNNY   67  49  52 NE14      29.78R
J F K          PTSUNNY   66  57  72 SE13      29.80R
Boston Logan   CLOUDY    60  51  72 E10       29.82R
Ft. Lauderdale CLOUDY    87  74  64 S16G26    29.80S HX  95
Chicago O`Hare CLOUDY    60  50  69 NE18G26   29.54F
Chicago Midway CLOUDY    59  52  77 N18       29.54S
Houston Bush   MOSUNNY   83  48  29 W15G24    29.76F
Houston Hobby  MOSUNNY   84  42  22 NW20G33   29.76F
Nashville      CLOUDY    62  53  72 W8G20     29.53R
Atlanta        CLOUDY    77  56  48 SW20G30   29.50S

$$

GAZ044-118-TXZ119-213-NCZ071-DCZ001-MDZ014-506-PAZ021-071-NJZ106-
NYZ176-178-MAZ106-OHZ011-021-055-MIZ076-KYZ091-ILZ014-INZ047-
MNZ060-ONZ431-242200-

...Gateway Observations for Savannah International...

CITY           SKY/WX    TMP DP  RH WIND       PRES   REMARKS
Savannah Arpt  LGT RAIN  75  69  81 S10       29.60R
Atlanta        CLOUDY    77  56  48 SW20G30   29.50S
Charlotte      HVY RAIN  68  63  84 S20G25    29.55F
Dallas DFW     MOSUNNY   82  42  24 NW13G26   29.74F
Houston Bush   MOSUNNY   83  48  29 W15G24    29.76F
Wash National  CLOUDY    64  58  80 SE13      29.73F
Wash Dulles    CLOUDY    62  56  80 SE9       29.72S
Baltimore      CLOUDY    65  58  78 SE6       29.72F
Philadelphia   PTSUNNY   69  51  52 SE13      29.75S
Newark         PTSUNNY   69  50  50 E5        29.78R
Laguardia      PTSUNNY   67  49  52 NE14      29.78R
J F K          PTSUNNY   66  57  72 SE13      29.80R
Boston         CLOUDY    60  51  72 E10       29.82R
Pittsburg      CLOUDY    67  56  67 SE18      29.54F
Akron          CLOUDY    64  57  78 SE14G21   29.52F
Cleveland      CLOUDY    63  59  87 SE12      29.54F
Cincinnati     TSTM      63  62  97 NW12      29.36F FOG
Columbus       CLOUDY    65  61  89 CALM      29.43R
Detroit        CLOUDY    63  58  83 NE12      29.54S
Chicago O`Hare CLOUDY    60  50  69 NE18G26   29.54F
Minneapolis    CLOUDY    62  44  51 NE10G17   29.71F
Indianapolis   LGT RAIN  59  55  87 N13       29.45S
Toronto Canada PTSUNNY   70  45  40 E15G23    29.63S

$$




USA.gov is the U.S. government's official web portal to all federal, state and local government web resources and services.